Location: Lafig�re
(44.4503°N, 4.0357°E)
Time: 06:36:23
(UTC+00:00)

Transit 2A Rocket - Pass Details

Date: 22 June 2021
Orbit: 590 x 913 km, 66.7° (Epoch: 26 July)

Event Time Altitude Azimuth Distance (km) Brightness Sun altitude
Exits shadow 23:32:12 71° 200° (SSW) 635 4.3 -22.0°
Maximum altitude 23:32:40 86° 119° (ESE) 605 4.4 -22.1°
Drops below altitude 10° 23:37:06 10° 33° (NNE) 1,992 7.9 -22.1°
Sets 23:39:26 0° 33° (NNE) 2,939 8.9 -22.1°
